When you browse on this site, cookies collect data to enhance your experience and personalize the content and advertising you see.
Visit our Privacy Policy to learn more. By continuing to use the site, you agree to this use of cookies and data.
  • In Czech Republic
  • List of Countries
  • For 7 days
  • Water Temperature
  • Satellite Maps
  • Weather Map
  • Weather Widgets
  • user-avatar
    Login

    Hourly Weather Shkoder

    Today, 19 January, Saturday

    Time Temperature Precipitation Wind Pressure Humidity
    00:00 +7°C° 0.7 mm 1 mps 740 mmHg 92%
    01:00 +8°C° 0 mm 1 mps 739 mmHg 93%
    02:00 +7°C° 1.1 mm 1 mps 739 mmHg 93%
    03:00 +6°C° 1.1 mm 2 mps 739 mmHg 93%
    04:00 +6°C° 1.1 mm 2 mps 739 mmHg 92%
    05:00 +6°C° 1 mm 2 mps 739 mmHg 92%
    06:00 +6°C° 1 mm 2 mps 739 mmHg 91%
    07:00 +6°C° 0 mm 2 mps 739 mmHg 89%
    08:00 +6°C° 0.5 mm 2 mps 739 mmHg 87%
    09:00 +6°C° 0.5 mm 2 mps 739 mmHg 86%
    10:00 +7°C° 0.5 mm 2 mps 739 mmHg 85%
    11:00 +7°C° 0.2 mm 2 mps 739 mmHg 84%
    12:00 +8°C° 0.2 mm 2 mps 739 mmHg 82%
    13:00 +9°C° 0 mm 2 mps 739 mmHg 80%
    14:00 +8°C° 0 mm 2 mps 739 mmHg 81%
    15:00 +8°C° 0 mm 2 mps 738 mmHg 83%
    16:00 +8°C° 0 mm 2 mps 738 mmHg 84%
    17:00 +7°C° 0.3 mm 2 mps 738 mmHg 84%
    18:00 +7°C° 0.3 mm 2 mps 738 mmHg 84%
    19:00 +6°C° 0.3 mm 2 mps 738 mmHg 84%
    20:00 +6°C° 0.4 mm 2 mps 738 mmHg 84%
    21:00 +6°C° 0.4 mm 2 mps 738 mmHg 83%
    22:00 +6°C° 0.4 mm 2 mps 738 mmHg 83%
    23:00 +6°C° 0.6 mm 2 mps 738 mmHg 83%

    Tomorrow, 20 January, Sunday

    Time Temperature Precipitation Wind Pressure Humidity
    00:00 +6°C° 0.6 mm 2 mps 737 mmHg 83%
    01:00 +6°C° 0.6 mm 2 mps 737 mmHg 84%
    02:00 +6°C° 1.9 mm 2 mps 737 mmHg 85%
    03:00 +5°C° 1.9 mm 2 mps 737 mmHg 86%
    04:00 +6°C° 1.9 mm 1 mps 737 mmHg 88%
    05:00 +6°C° 2.5 mm 1 mps 737 mmHg 88%
    06:00 +6°C° 2.5 mm 1 mps 737 mmHg 89%
    07:00 +6°C° 2.5 mm 1 mps 737 mmHg 89%
    08:00 +7°C° 0.3 mm 1 mps 737 mmHg 89%
    09:00 +7°C° 0.3 mm 1 mps 737 mmHg 89%
    10:00 +8°C° 0.3 mm 1 mps 738 mmHg 89%
    11:00 +8°C° 0 mm 1 mps 738 mmHg 88%
    12:00 +9°C° 0 mm 1 mps 737 mmHg 87%
    13:00 +9°C° 0 mm 1 mps 737 mmHg 85%
    14:00 +9°C° 0 mm 1 mps 737 mmHg 86%
    15:00 +9°C° 0 mm 1 mps 737 mmHg 86%
    16:00 +9°C° 0 mm 1 mps 738 mmHg 87%
    17:00 +8°C° 0 mm 1 mps 738 mmHg 87%
    18:00 +7°C° 0 mm 1 mps 738 mmHg 87%
    19:00 +6°C° 0 mm 2 mps 738 mmHg 87%
    20:00 +5°C° 0 mm 2 mps 738 mmHg 86%
    21:00 +5°C° 0 mm 2 mps 738 mmHg 85%
    22:00 +5°C° 0 mm 2 mps 738 mmHg 83%
    23:00 +5°C° 0 mm 2 mps 739 mmHg 83%

    Day after tomorrow, 21 January, Monday

    Time Temperature Precipitation Wind Pressure Humidity
    00:00 +5°C° 0 mm 2 mps 739 mmHg 82%
    01:00 +5°C° 0 mm 2 mps 739 mmHg 81%
    02:00 +5°C° 0 mm 2 mps 739 mmHg 81%
    03:00 +5°C° 0 mm 2 mps 739 mmHg 80%
    04:00 +4°C° 0 mm 2 mps 739 mmHg 80%
    05:00 +4°C° 0 mm 2 mps 739 mmHg 79%
    06:00 +4°C° 0 mm 2 mps 739 mmHg 79%
    07:00 +4°C° 0 mm 2 mps 739 mmHg 79%
    08:00 +6°C° 0 mm 2 mps 739 mmHg 77%
    09:00 +7°C° 0 mm 2 mps 740 mmHg 75%
    10:00 +8°C° 0 mm 2 mps 740 mmHg 73%
    11:00 +9°C° 0 mm 2 mps 740 mmHg 71%
    12:00 +9°C° 0 mm 2 mps 739 mmHg 69%
    13:00 +11°C° 0 mm 1 mps 739 mmHg 67%
    14:00 +10°C° 0 mm 1 mps 739 mmHg 70%
    15:00 +9°C° 0 mm 2 mps 739 mmHg 73%
    16:00 +8°C° 0 mm 2 mps 739 mmHg 77%
    17:00 +7°C° 0 mm 2 mps 739 mmHg 78%
    18:00 +7°C° 0 mm 2 mps 739 mmHg 79%
    19:00 +5°C° 0 mm 3 mps 739 mmHg 81%
    20:00 +5°C° 0 mm 3 mps 739 mmHg 80%
    21:00 +5°C° 0 mm 3 mps 739 mmHg 80%
    22:00 +4°C° 0 mm 3 mps 739 mmHg 80%
    23:00 +4°C° 0.1 mm 3 mps 739 mmHg 80%

    22 January, Tuesday

    Time Temperature Precipitation Wind Pressure Humidity
    00:00 +4°C° 0.1 mm 3 mps 739 mmHg 80%
    01:00 +4°C° 0.1 mm 3 mps 738 mmHg 80%
    02:00 +4°C° 0.4 mm 3 mps 738 mmHg 80%
    03:00 +4°C° 0.4 mm 3 mps 737 mmHg 81%
    04:00 +4°C° 0.4 mm 3 mps 737 mmHg 82%
    05:00 +4°C° 0.5 mm 3 mps 737 mmHg 82%
    06:00 +4°C° 0.5 mm 3 mps 736 mmHg 82%
    07:00 +4°C° 0.5 mm 3 mps 736 mmHg 82%
    08:00 +5°C° 0.2 mm 3 mps 736 mmHg 81%
    09:00 +5°C° 0.2 mm 3 mps 735 mmHg 80%
    10:00 +7°C° 0.2 mm 3 mps 735 mmHg 79%
    11:00 +7°C° 0.5 mm 3 mps 734 mmHg 81%
    12:00 +7°C° 0.5 mm 2 mps 734 mmHg 82%
    13:00 +7°C° 0.5 mm 2 mps 733 mmHg 83%
    14:00 +7°C° 0.5 mm 2 mps 732 mmHg 83%
    15:00 +7°C° 0.5 mm 2 mps 732 mmHg 83%
    16:00 +7°C° 0.5 mm 2 mps 731 mmHg 82%
    17:00 +7°C° 0.1 mm 2 mps 731 mmHg 82%
    18:00 +7°C° 0.1 mm 2 mps 730 mmHg 81%
    19:00 +6°C° 0.1 mm 2 mps 730 mmHg 81%
    20:00 +6°C° 0.2 mm 2 mps 730 mmHg 81%
    21:00 +6°C° 0.2 mm 2 mps 729 mmHg 81%
    22:00 +5°C° 0.2 mm 3 mps 729 mmHg 81%
    23:00 +5°C° 0.8 mm 3 mps 728 mmHg 82%

    23 January, Wednesday

    Time Temperature Precipitation Wind Pressure Humidity
    00:00 +5°C° 0.8 mm 3 mps 728 mmHg 83%
    01:00 +5°C° 0.8 mm 3 mps 727 mmHg 84%
    02:00 +5°C° 0.5 mm 3 mps 726 mmHg 83%
    03:00 +5°C° 0.5 mm 3 mps 726 mmHg 82%
    04:00 +5°C° 0.5 mm 3 mps 725 mmHg 81%
    05:00 +5°C° 0.5 mm 3 mps 725 mmHg 82%
    06:00 +5°C° 0.5 mm 3 mps 725 mmHg 82%
    07:00 +5°C° 0.5 mm 3 mps 725 mmHg 83%
    08:00 +6°C° 1 mm 4 mps 726 mmHg 85%
    09:00 +6°C° 1 mm 5 mps 726 mmHg 87%
    10:00 +7°C° 1 mm 6 mps 726 mmHg 89%
    11:00 +7°C° 1.7 mm 6 mps 726 mmHg 86%
    12:00 +7°C° 1.7 mm 6 mps 726 mmHg 84%
    13:00 +8°C° 1.7 mm 5 mps 726 mmHg 81%
    14:00 +7°C° 1.2 mm 4 mps 727 mmHg 82%
    15:00 +7°C° 1.2 mm 4 mps 727 mmHg 83%
    16:00 +8°C° 1.2 mm 3 mps 727 mmHg 83%
    17:00 +7°C° 0.7 mm 3 mps 728 mmHg 84%
    18:00 +7°C° 0.7 mm 2 mps 728 mmHg 85%
    19:00 +7°C° 0.7 mm 1 mps 728 mmHg 86%
    20:00 +7°C° 0.1 mm 1 mps 728 mmHg 86%
    21:00 +7°C° 0.1 mm 1 mps 729 mmHg 85%
    22:00 +6°C° 0.1 mm 1 mps 729 mmHg 84%
    23:00 +5°C° 0 mm 2 mps 729 mmHg 83%

    24 January, Thursday

    Time Temperature Precipitation Wind Pressure Humidity
    00:00 +5°C° 0 mm 2 mps 728 mmHg 81%
    01:00 +4°C° 0 mm 3 mps 728 mmHg 80%
    02:00 +4°C° 0 mm 3 mps 728 mmHg 78%
    03:00 +3°C° 0 mm 3 mps 727 mmHg 77%
    04:00 +3°C° 0 mm 3 mps 726 mmHg 76%
    05:00 +3°C° 0 mm 3 mps 726 mmHg 75%
    06:00 +3°C° 0 mm 4 mps 726 mmHg 74%
    07:00 +3°C° 0 mm 4 mps 726 mmHg 73%
    08:00 +4°C° 0 mm 4 mps 726 mmHg 70%
    09:00 +6°C° 0 mm 4 mps 725 mmHg 67%
    10:00 +7°C° 0 mm 4 mps 725 mmHg 64%
    11:00 +7°C° 0 mm 4 mps 725 mmHg 65%
    12:00 +8°C° 0 mm 3 mps 724 mmHg 66%
    13:00 +9°C° 0 mm 3 mps 724 mmHg 67%
    14:00 +8°C° 0.1 mm 3 mps 724 mmHg 70%
    15:00 +8°C° 0.1 mm 3 mps 724 mmHg 72%
    16:00 +7°C° 0.1 mm 2 mps 724 mmHg 75%
    17:00 +7°C° 0.1 mm 3 mps 724 mmHg 76%
    18:00 +5°C° 0.1 mm 3 mps 724 mmHg 77%
    19:00 +5°C° 0.1 mm 4 mps 724 mmHg 78%
    20:00 +4°C° 0 mm 4 mps 724 mmHg 78%
    21:00 +4°C° 0 mm 4 mps 724 mmHg 77%
    22:00 +4°C° 0 mm 4 mps 724 mmHg 77%
    23:00 +4°C° 0.2 mm 3 mps 724 mmHg 78%
    Show more